Flag for Germany Weather past 2 weeks in Landshut, Bavaria, Germany

Now
38 °F

Light rain. Overcast.


Feels Like: 32 °F
Forecast: 30 / 34 °F
Wind: 8 mph from West

Location: Muenchen Flughafen

Current Time: Dec 26, 2014 at 12:29:51 AM

Latest Report: Dec 26, 2014 at 12:00 AM


Visibility: 25 mi

Pressure: 30.35 "Hg

Humidity: 74%

Dew point: 30 °F

Location of LandshutLocation

Historic Weather in Landshut — Graph

°F

Landshut temperature yesterday

Maximum temperature yesterday: 46 °F (at 1:00 AM)
Minimum temperature yesterday: 36 °F (at 6:00 PM)
Average temperature yesterday: 41 °F

Past Weeks' High & Low Weather Summary

 TemperatureHumidityPressure
High56 °F (Dec 19, 2:00 PM)98% (Dec 16, 3:00 AM)30.54 "Hg (Dec 16, 3:00 AM)
Low25 °F (Dec 24, 3:00 AM)35% (Dec 23, 1:00 PM)29.82 "Hg (Dec 12, 9:00 PM)
Average43 °F76%30.13 "Hg
* Reported Dec 10 11:00 PM — Dec 25 11:00 PM, Landshut, Weather by CustomWeather, © 2014

Note: Actual official high and low records may vary slightly from our data, if they occured in-between our weather recording intervals... More about our weather records

Advertising

Landshut weather history for previous 24 hours

 ConditionsComfort  
Time TempWeatherWind HumidityBarometerVisibility
11:00 PM
Dec 25
38 °FOvercast.10 mph73%30.34 "Hg25 mi
10:00 PM37 °FOvercast.9 mph75%30.35 "Hg25 mi
9:00 PM37 °FOvercast.7 mph74%30.35 "Hg25 mi
8:00 PM37 °FOvercast.6 mph72%30.35 "Hg28 mi
7:00 PM36 °FOvercast.6 mph75%30.35 "Hg28 mi
6:00 PM36 °FOvercast.6 mph77%30.33 "Hg25 mi
5:00 PM38 °FOvercast.6 mph75%30.32 "Hg19 mi
4:00 PM39 °FOvercast.6 mph73%30.31 "Hg19 mi
3:00 PM39 °FOvercast.5 mph75%30.30 "Hg19 mi
2:00 PM40 °FOvercast.5 mph73%30.29 "Hg25 mi
1:00 PM39 °FOvercast.5 mph71%30.29 "Hg25 mi
12:00 PM39 °FOvercast.5 mph76%30.30 "Hg22 mi
11:00 AM40 °FOvercast.7 mph77%30.29 "Hg19 mi
10:00 AM40 °FRain. Overcast.3 mph89%30.28 "Hg9 mi
9:00 AM39 °FLow clouds.3 mph93%30.26 "Hg6 mi
8:00 AM40 °FRain. Overcast.8 mph85%30.24 "Hg9 mi
7:00 AM43 °FOvercast.8 mph81%30.20 "Hg22 mi
6:00 AM44 °FOvercast.10 mph79%30.19 "Hg22 mi
5:00 AM44 °FOvercast.10 mph78%30.18 "Hg22 mi
4:00 AM45 °FOvercast.12 mph75%30.18 "Hg22 mi
3:00 AM44 °FLight rain. Overcast.12 mph78%30.19 "Hg19 mi
2:00 AM46 °FOvercast.12 mph66%30.18 "Hg31 mi
1:00 AM46 °FOvercast.12 mph63%30.19 "Hg31 mi
12:00 AM44 °FOvercast.9 mph66%30.19 "Hg31 mi
Weather by CustomWeather, © 2014

See weather overviewHow to use our weather pages